Showing default

EXPLORER 20, 870

Orbit data source: Space-Track

EXPLORER 20, 870 is a payload satellite owned by GSFC (US) in LEO that was launched on Tue, 25 Aug 1964 UTC via an SCOUT X-4 launch vehicle from the Air Force Western Test Range (AFWTR). Payload-class satellites include a variety of spacecraft equipped with specific instruments for various scientific and technological missions. These include communications satellites like Starlink; space stations such as the ISS; scientific satellites like the Hubble; Earth observation satellites from companies like Planet Labs, Umbra, and HawkEye 360; GPS; miniature CubeSats for education and research; and military/defense satellites.

Loading next visibility...
Identifier
870, 1964-051A
Orbit
LEO
Country
Flag of USUS
Related business
Manufacturer
Cutler-Hammer/AIL
Mission
Spacecraft
Bus & Motor
S-48, Unknown motor
Mass
44 kg wet, 44 kg dry
Launch date (UTC)
1964-08-25 (62 years ago)
Launch vehicle
SCOUT X-4
Launch site
Air Force Western Test Range (AFWTR)
Object type
Payload
Rocket body
Debris
Shape & HBR
Unknown
Radar Cross Section
Medium (>0.1 m² and <1 m²)

Expand to show TLE details & history
Last TLE update: 13 hours ago

TLE from 13 hours ago
0 EXPLORER 20
1 00870U 64051A   26104.11789829  .00000110  00000-0  76617-4 0  9992
2 00870  79.9005 348.4727 0097556  91.8751 269.3581 13.91778381124521
Epoch: 2026-04-14T02:49Z
TLE epoch observation values (Epoch: 2026-04-14T02:49:46.412Z)
Latitude
-0.00005°
Longitude
103.73056°
Altitude
926.727 km
Speed
7.388 km/s
True Right ascension
23h 13m 53s
True Declination
0° 00' 00"
Sunlit
Object was in daylight at epoch
Visualization orbit readout
Latitude
Unknown
Longitude
Unknown
Altitude
Unknown
Speed
Unknown
Apparent Right ascension
Unknown
Apparent Declination
Unknown
Sunlit
N/A
Visualization observer readout
Local Sidereal Time
22:23:02
Azimuth
Unknown
Elevation
Unknown
Doppler factor
Unknown
Orbital elements
Apogee altitude
990.867 km
Perigee altitude
848.478 km
Semi-major axis
7,297.809 km
Eccentricity
0.00976
Inclination
79.9005°
RAAN
348.4727°
Arg. of periapsis
91.8751°
True anomaly
268.24048°
Mean anomaly
269.3581°
Eccentric anomaly
268.79927°
Mean motion
3.4814 °/min
Orbital period
103.41 mins
BSTAR
0.000076617
Loading maneuver chart data...
Computing Atmospheric mass density...
Loading historical data...
Loading historical data...
Loading historical data...
Loading historical data...
Loading historical data...
Loading historical data...
Loading historical data...

Documentation

Showing up to 5 results
|